Wind_Speed
10 10 10 9 8 7 6 5 6 5 4 4 3 3 3 3 4 5 6 6 7 8 9 10 11 12 13 14 15 16 17 17 18 19 19 20 20 20 21 21 21 21 21 22 22 22 22 22 23 23 24 25 25 26 26 26 27 27 28 28 29 30 30 31 31 31 31 32 31
11 10 9 8 7 7 6 5 5 4 4 4 3 3 3 4 5 6 7 8 8 9 10 12 12 13 14 15 16 16 17 18 18 19 19 19 20 20 20 20 21 21 21 21 22 22 22 22 22 22 23 24 25 26 27 27 27 27 28 29 29 29 30 31 31 32 32 32 32
11 9 8 7 7 6 6 5 5 4 4 3 2 3 3 4 5 7 8 9 10 11 11 12 13 14 14 15 16 17 17 18 18 18 19 19 19 20 20 20 21 21 21 21 22 22 22 22 22 22 23 23 24 25 26 27 27 28 28 29 29 29 29 29 30 30 30 30 31
10 9 8 7 7 7 6 5 4 3 2 2 3 4 4 5 6 7 9 10 11 12 12 13 13 14 15 16 17 18 18 18 18 18 19 19 20 20 20 21 21 22 22 22 22 22 23 23 22 22 23 24 24 25 26 26 27 28 28 29 29 29 29 29 29 29 29 30 30
11 10 9 8 8 7 6 4 3 2 2 3 5 5 5 6 7 8 9 10 11 12 13 14 14 15 16 17 17 18 18 18 18 18 19 19 20 20 21 21 22 22 22 22 22 23 23 23 23 23 23 24 24 25 25 26 27 28 28 28 29 29 29 29 29 29 29 30 30
11 10 9 9 7 6 4 3 2 3 4 6 6 7 7 7 8 9 10 12 13 14 14 14 15 15 16 17 17 17 18 18 18 18 19 20 20 21 21 22 22 22 22 22 23 23 23 23 23 23 23 23 24 25 26 26 27 27 28 29 29 29 29 30 29 29 29 30 31
10 9 8 7 6 4 2 2 4 5 6 7 7 8 8 9 10 11 12 13 13 14 14 14 14 15 16 16 17 17 18 18 19 19 20 20 21 21 22 22 22 22 22 23 23 23 23 23 22 23 23 23 24 24 25 25 26 27 27 28 28 29 29 30 30 30 30 31 32
9 8 7 6 3 2 2 4 5 6 6 7 8 9 10 11 12 13 13 14 14 14 14 14 14 15 16 17 17 18 19 19 20 20 21 21 21 22 22 22 22 22 23 23 23 23 23 22 22 23 23 23 23 24 24 25 25 26 27 28 28 29 29 30 30 30 31 32 33
8 7 5 3 2 3 4 5 6 7 7 8 9 10 11 12 13 13 14 13 13 14 14 15 15 16 17 18 19 19 19 20 20 21 21 21 21 22 22 22 22 22 23 23 23 23 23 23 23 23 23 23 24 24 24 25 25 26 27 28 28 29 30 30 31 31 32 33 34
7 5 3 1 1 3 4 5 6 7 8 9 10 10 11 11 12 13 13 13 13 14 15 16 16 17 18 19 19 20 20 20 20 21 21 21 22 22 22 22 22 23 23 23 22 22 23 23 23 24 24 25 25 26 26 26 27 27 28 28 29 29 30 31 32 33 33 34 34
5 4 2 2 2 3 4 5 6 7 8 9 10 10 11 11 12 12 13 13 14 15 16 17 17 18 18 19 19 20 20 20 20 21 21 22 22 22 23 23 23 23 23 23 23 22 22 23 23 24 25 26 26 27 27 28 28 29 29 29 29 30 31 32 33 33 34 35 35
4 3 3 3 3 4 5 6 6 7 8 9 10 10 11 12 12 13 13 14 15 16 17 17 17 18 19 19 20 20 20 21 21 21 22 23 23 23 24 24 24 24 24 24 23 23 23 23 24 25 26 26 26 26 27 27 28 29 29 30 30 31 32 32 33 33 33 34 35
4 3 3 3 4 5 5 6 7 7 8 9 10 11 11 12 13 13 14 15 16 17 17 17 18 18 19 20 20 20 21 21 21 22 22 23 23 24 24 24 24 24 24 24 24 23 23 24 25 26 26 27 27 27 27 28 28 29 30 30 31 31 32 33 33 33 34 34 35
5 4 4 4 4 5 5 7 8 8 9 10 10 11 12 12 13 13 14 15 16 17 17 18 18 18 19 19 20 21 21 22 22 23 23 24 24 24 24 24 24 24 24 24 24 24 24 25 26 26 27 28 28 28 29 29 29 30 30 31 32 32 33 33 33 33 34 35 35
5 5 5 5 5 5 6 7 8 9 9 10 11 11 12 13 13 14 14 15 16 17 17 18 18 19 19 20 20 21 22 22 23 23 24 24 24 25 25 25 25 25 24 24 24 24 25 26 26 27 27 28 29 29 29 30 30 30 31 31 32 33 33 33 33 34 34 34 35
5 5 5 6 6 7 7 8 8 9 9 10 11 11 12 13 13 14 14 15 16 17 17 18 19 20 20 20 21 21 22 22 23 23 24 24 24 24 24 25 25 25 25 25 25 25 25 26 26 27 28 28 29 30 30 30 30 31 31 32 32 33 33 33 34 34 34 34 35
6 6 7 7 7 7 8 8 8 9 10 10 11 12 13 13 14 14 14 15 16 17 18 19 19 20 21 21 21 21 22 22 23 23 23 24 24 24 25 25 25 25 25 25 26 26 26 27 27 27 28 29 29 30 30 31 31 31 32 32 33 33 33 34 34 34 34 34 35
7 7 8 7 7 7 8 8 9 9 10 11 12 13 13 13 14 15 15 16 17 18 19 20 20 21 21 22 22 22 22 22 23 23 24 24 25 25 25 25 25 25 25 26 26 26 27 27 27 27 28 29 29 30 30 31 31 32 32 32 33 33 33 33 33 33 33 33 34
8 8 7 7 7 7 8 8 9 10 11 12 12 13 14 14 15 16 17 17 18 19 19 20 21 21 22 22 23 22 22 23 23 24 25 25 25 25 26 26 26 26 26 26 26 27 27 27 27 28 28 29 29 30 30 31 31 31 31 32 32 32 33 33 33 33 33 33 33
8 7 7 7 7 7 8 9 10 11 12 12 13 14 15 15 16 17 18 18 19 19 20 21 21 22 22 23 23 23 23 23 24 24 25 25 25 26 26 26 26 26 26 26 27 27 27 27 27 28 29 29 30 30 30 30 31 31 31 31 31 31 32 32 32 32 32 33 33
7 7 6 6 7 7 8 9 10 11 12 13 14 15 15 16 17 17 18 19 19 20 20 21 22 22 23 23 24 24 24 24 24 24 25 25 25 26 26 26 26 26 26 26 26 27 27 27 28 28 29 29 29 30 30 30 30 30 31 31 30 31 31 31 31 31 32 32 32
7 6 6 6 7 8 9 10 11 12 13 14 14 15 16 17 17 18 19 19 20 20 21 21 22 22 23 24 24 24 25 24 24 25 25 25 25 25 25 25 25 26 26 26 27 27 27 28 28 28 28 28 28 28 29 29 29 30 30 30 30 31 31 31 31 31 32 32 32
6 5 6 6 7 8 9 10 12 13 13 14 15 16 16 17 18 18 19 19 20 21 21 22 22 23 24 24 24 25 25 25 25 25 25 25 25 25 25 25 25 26 26 26 27 26 26 26 26 26 25 25 26 26 27 27 28 28 29 29 30 30 31 31 32 32 32 32 32
5 5 6 7 8 9 10 11 12 13 14 15 15 16 17 18 18 19 19 20 20 21 21 22 22 23 24 25 25 25 25 25 26 26 26 25 25 25 25 25 25 26 26 26 26 25 24 24 24 24 24 24 25 25 25 25 25 26 27 27 28 29 29 30 30 31 31 32 32
5 5 6 7 8 9 11 12 13 14 15 16 16 17 18 18 19 19 20 20 21 22 22 23 23 23 24 25 25 24 24 24 25 25 25 25 25 25 25 25 25 25 25 25 25 25 25 23 24 24 24 24 25 25 25 25 25 26 27 27 28 28 29 29 30 30 30 31 32
5 6 7 8 9 10 11 12 13 15 16 17 17 18 19 19 19 20 20 21 22 23 23 23 24 24 24 24 24 24 24 24 24 24 24 25 25 25 25 26 26 26 25 25 25 25 25 24 25 25 25 25 25 26 26 26 26 27 27 28 28 28 29 29 30 30 30 30 31
6 7 8 9 10 11 12 13 14 15 16 17 18 19 19 20 20 21 21 22 23 24 24 23 24 24 23 23 23 23 23 23 23 24 24 25 26 26 27 27 26 26 25 25 25 25 25 26 26 26 27 27 27 27 26 26 27 27 27 28 28 29 29 30 30 31 31 30 30
6 7 8 10 11 12 13 14 15 16 17 18 19 20 20 21 21 22 23 24 24 24 24 23 23 22 21 22 22 23 23 23 24 25 25 26 26 27 27 27 26 26 26 26 26 26 27 27 28 28 28 28 28 28 28 28 28 28 27 28 28 29 29 30 30 30 30 30 30
7 8 9 10 11 12 14 15 16 17 18 19 20 20 21 22 22 23 24 24 24 24 24 23 23 22 21 22 23 24 25 25 25 25 25 26 26 27 27 27 27 27 27 27 28 28 28 28 29 29 29 30 29 28 27 27 27 27 27 27 27 28 28 28 28 28 29 29 29
7 8 9 10 12 13 14 16 17 18 19 20 21 21 22 22 23 23 24 24 24 24 24 23 23 23 23 24 24 25 25 25 25 25 25 26 27 27 28 27 27 28 28 28 28 29 29 30 30 30 30 30 30 29 28 27 27 27 27 27 28 28 28 28 29 29 29 29 28
8 9 10 11 13 14 16 17 18 19 20 21 21 22 22 22 23 24 24 24 24 24 24 24 24 24 25 25 25 25 25 26 25 25 26 26 27 27 28 28 28 28 28 29 29 30 30 30 30 30 31 31 30 29 28 28 28 28 28 28 29 29 30 29 29 29 29 30 29
8 9 10 12 14 15 17 18 19 20 20 21 22 22 22 23 23 24 24 24 24 24 24 24 24 25 25 25 25 26 26 26 26 26 26 26 27 27 28 28 28 28 28 29 29 30 30 30 30 31 31 31 31 30 29 29 29 29 29 30 31 31 31 31 30 30 30 30 30
9 10 11 13 14 16 17 19 20 21 21 22 22 22 23 23 24 24 24 24 23 24 24 24 24 24 25 25 25 25 25 26 26 26 26 26 27 27 28 28 28 28 28 29 29 30 30 31 31 31 32 32 31 31 30 29 29 29 29 30 31 31 32 32 31 31 31 31 31
9 11 12 14 16 17 18 20 20 21 21 22 22 23 23 23 24 24 24 23 23 23 23 23 24 24 24 24 25 25 25 25 25 26 26 27 27 27 27 28 27 28 28 29 30 31 31 32 32 32 33 33 32 31 30 29 29 29 29 30 31 31 31 32 32 32 32 32 32
10 12 13 15 17 18 19 20 20 21 21 22 22 23 23 23 24 24 23 23 23 23 24 24 24 24 24 24 25 25 25 26 26 26 27 27 27 27 28 28 29 29 30 30 31 32 32 32 32 33 33 33 31 30 29 28 28 28 29 30 31 31 32 32 32 32 32 32 32
11 12 13 15 17 19 19 20 21 21 22 22 22 22 23 23 23 23 23 23 23 23 24 24 24 24 24 25 25 25 25 25 26 27 27 27 27 27 28 29 30 30 31 31 31 32 32 32 33 33 33 32 30 28 27 27 26 27 28 28 29 30 31 31 32 32 32 32 32
12 12 12 14 17 19 20 20 21 21 22 22 22 23 23 23 23 23 22 22 23 23 24 24 24 24 25 25 25 25 25 26 26 27 27 27 27 27 28 29 30 31 31 31 31 31 32 33 33 33 33 31 29 27 26 26 25 25 26 27 28 29 29 29 30 30 31 31 32
12 12 13 15 17 19 20 20 21 21 22 22 23 23 23 23 23 23 22 22 22 23 24 24 25 25 25 25 25 25 26 26 26 26 27 27 27 27 28 29 30 31 31 31 31 32 32 33 34 34 33 31 29 27 26 25 24 24 25 25 26 27 27 27 27 28 29 30 31
13 14 15 16 18 19 20 20 20 21 21 22 22 23 23 22 22 22 22 22 22 23 24 24 25 25 25 25 25 26 26 26 26 26 27 27 27 27 28 29 30 31 31 31 32 32 33 33 34 34 33 32 30 27 25 24 24 24 24 25 25 25 26 26 26 26 27 29 30
13 14 15 16 17 18 19 20 20 21 21 21 21 22 22 22 22 22 22 22 22 22 23 24 25 25 24 24 25 26 27 27 27 27 27 27 28 28 28 29 30 31 31 31 31 32 32 33 33 33 33 32 30 27 25 23 23 23 23 23 23 23 24 24 24 25 26 27 28
13 14 15 16 17 18 18 19 20 20 20 20 21 21 22 22 22 22 22 22 23 23 23 24 24 24 24 24 25 26 27 27 28 28 28 28 28 28 28 28 29 29 30 30 30 31 31 32 32 33 33 32 30 28 25 23 22 23 23 23 23 22 22 23 23 24 24 25 26
Wind_Direction
168 170 171 171 171 171 176 190 203 210 214 217 224 236 254 271 282 287 289 290 290 289 289 288 288 287 287 288 289 290 290 290 289 288 287 285 284 284 283 282 281 280 279 279 278 278 277 276 275 274 273 271 270 268 267 265 265 265 264 263 263 263 263 262 261 260 259 259 259
168 170 172 172 172 174 181 194 208 212 212 214 225 248 271 282 288 290 290 290 289 289 289 288 287 287 287 288 289 290 290 290 289 288 286 285 283 282 281 280 279 278 277 276 276 276 276 275 274 273 272 271 269 267 266 264 262 262 261 260 261 261 261 260 259 258 258 258 257
167 168 167 166 168 172 178 185 195 201 207 216 241 273 288 291 291 291 290 290 289 289 289 288 288 287 287 288 289 290 289 289 288 287 286 284 283 282 281 280 279 278 276 275 274 273 273 273 273 272 271 269 268 267 266 264 262 261 260 259 259 259 259 258 258 257 257 256 256
164 163 163 165 170 174 177 182 190 200 218 249 280 293 294 293 291 290 290 291 291 290 289 289 288 288 288 288 289 289 289 287 287 286 285 283 282 281 280 279 278 277 276 274 273 272 271 271 271 270 269 268 267 266 265 264 263 261 260 260 259 258 258 258 257 256 255 255 254
165 166 167 169 170 173 177 183 193 219 264 288 298 299 296 293 291 291 292 292 291 290 290 289 288 287 286 287 288 288 287 286 285 284 283 281 281 279 278 277 276 276 275 273 272 271 270 269 269 268 267 267 266 265 264 263 263 262 261 260 259 258 257 257 256 255 254 254 253
170 173 175 175 174 175 181 200 246 282 296 301 302 299 296 294 294 293 293 293 292 291 290 288 286 285 285 285 285 285 285 284 283 281 280 279 278 277 276 275 274 273 272 272 271 270 269 268 268 267 266 265 265 264 263 263 262 262 261 260 259 258 257 257 256 255 254 253 253
172 173 173 174 176 179 202 272 296 302 304 303 300 297 296 295 294 293 292 292 291 290 289 286 284 283 283 283 283 282 282 282 280 279 278 276 275 274 273 272 272 271 270 270 270 270 269 267 267 266 266 265 265 264 263 262 262 261 261 261 260 259 258 257 256 255 254 253 252
168 167 166 169 179 217 278 296 302 303 302 300 297 296 295 294 293 292 291 290 288 287 286 284 282 281 281 281 280 279 279 278 278 277 275 274 273 273 272 272 271 270 270 270 269 269 268 267 266 266 265 265 265 265 264 263 262 262 262 262 261 261 259 258 257 256 254 253 252
167 167 169 176 229 279 292 296 299 300 299 297 295 294 293 291 290 289 288 286 284 284 283 281 281 280 280 279 278 277 276 275 274 274 273 272 272 272 272 272 271 271 271 270 270 269 268 268 267 266 265 264 264 265 265 264 264 264 263 263 263 263 261 260 258 257 255 254 252
166 166 167 177 259 280 289 295 298 299 298 295 292 289 287 285 284 283 282 282 282 281 280 279 279 279 278 277 276 274 273 272 272 271 271 271 270 271 271 271 271 271 271 271 270 270 269 268 267 266 265 264 264 265 266 265 265 264 264 264 264 264 263 262 260 259 257 256 254
164 166 176 193 240 269 285 293 295 294 292 288 285 282 281 280 279 278 278 279 279 278 278 277 277 277 276 275 274 273 272 271 270 271 271 271 271 271 271 272 271 272 272 271 271 270 269 268 267 266 265 265 265 266 266 266 265 265 264 264 264 264 264 263 262 260 259 258 256
168 181 202 224 251 273 285 289 288 285 282 279 278 278 277 277 277 278 278 278 277 277 277 277 276 275 275 274 273 273 273 272 272 272 272 273 273 273 273 272 272 272 271 271 270 269 268 267 266 266 266 266 266 266 266 266 266 265 265 264 264 264 264 263 262 261 260 259 258
185 197 216 239 263 276 282 281 279 277 275 274 275 275 276 277 278 278 278 278 277 277 278 277 276 275 275 274 274 274 274 274 274 274 274 274 273 273 273 273 272 271 271 270 269 268 267 266 265 266 266 266 266 266 266 266 266 266 266 265 265 264 263 262 262 261 260 259 258
205 218 232 247 261 268 271 271 273 273 273 274 275 276 278 279 279 278 278 277 277 278 279 279 278 277 276 275 275 276 275 276 275 275 274 274 273 273 273 272 272 271 271 270 268 267 266 266 266 266 266 267 267 266 266 266 266 266 265 265 265 264 263 262 262 261 260 259 259
214 228 239 246 252 258 263 265 269 271 273 276 277 279 280 280 279 278 278 277 278 279 280 280 280 279 278 277 277 277 276 276 276 275 275 274 274 273 273 272 272 271 271 270 269 267 267 266 266 267 267 267 267 267 266 266 265 265 264 264 264 263 263 262 262 261 260 259 259
219 226 235 243 248 254 259 263 268 273 277 279 280 281 281 281 280 279 278 278 279 280 280 280 281 281 281 280 278 278 277 277 276 276 275 275 275 274 274 273 273 272 272 271 271 269 268 268 267 267 268 268 268 268 267 267 266 265 264 264 263 263 263 262 262 261 260 259 259
222 228 235 242 247 252 258 266 272 277 281 282 283 283 282 282 282 280 279 279 280 281 281 281 281 282 282 281 280 279 279 278 277 276 276 276 276 276 276 275 275 274 274 274 273 272 271 270 269 269 269 269 269 269 268 268 267 267 266 265 264 263 263 262 262 261 260 259 258
225 231 236 241 247 255 264 272 278 282 284 285 284 284 283 282 282 282 282 281 281 281 282 282 281 281 281 281 281 280 279 278 278 277 277 277 277 277 277 277 276 276 276 275 274 273 273 272 271 270 270 270 270 269 269 269 268 268 267 266 265 264 263 263 262 261 260 259 258
228 232 237 245 254 265 274 280 285 286 287 286 285 284 284 283 283 283 283 283 282 282 282 283 282 281 281 281 281 280 279 279 278 278 278 278 278 278 278 278 278 277 277 276 275 274 274 273 273 273 272 272 271 271 270 269 269 268 267 266 265 265 264 263 262 261 261 260 259
231 237 244 255 266 276 284 288 289 290 289 288 286 285 285 284 284 284 284 284 284 284 283 283 283 282 282 281 281 281 280 280 279 279 279 279 279 279 279 279 279 278 278 277 276 275 275 275 275 275 274 274 273 272 271 270 269 268 267 266 265 264 264 263 262 261 261 260 260
236 244 256 268 278 286 290 292 292 291 290 289 287 286 285 285 285 284 284 285 285 285 285 284 284 283 283 283 283 282 282 281 281 280 280 280 279 279 279 279 279 279 278 277 277 277 277 277 277 277 276 275 274 272 271 270 269 268 267 266 265 264 263 263 262 261 261 260 260
243 255 269 280 287 292 294 295 294 293 291 290 288 287 287 286 286 285 285 286 286 286 285 285 285 285 285 285 285 284 284 283 282 281 281 280 280 279 279 279 279 279 278 278 278 278 278 278 278 277 277 275 274 273 271 270 270 269 268 267 266 265 264 263 262 261 260 259 259
253 268 281 288 293 296 297 297 296 294 293 291 290 289 288 287 286 286 286 287 286 286 286 286 286 286 287 287 286 285 284 284 283 282 281 280 280 280 280 280 280 279 279 279 279 279 280 280 279 278 277 276 275 274 273 272 271 270 269 268 267 266 265 263 262 260 259 258 258
263 278 288 294 297 299 300 299 298 296 295 294 292 291 290 289 288 288 288 288 287 287 287 286 287 288 288 288 287 285 284 283 283 283 282 281 280 280 281 280 280 280 280 279 279 279 280 280 280 279 279 277 276 275 274 273 272 271 271 270 269 268 267 265 263 261 260 258 257
274 287 294 298 301 301 301 300 299 298 297 296 296 295 294 293 292 291 290 290 289 289 289 288 288 288 288 288 287 286 284 283 283 283 283 282 282 281 282 282 281 281 280 280 279 279 278 278 277 277 277 277 276 276 275 274 273 272 272 271 271 270 269 268 266 264 262 259 258
286 295 300 302 303 302 302 301 300 299 299 299 298 298 297 296 295 294 293 292 292 292 292 291 290 290 289 287 287 287 285 283 283 283 283 283 283 283 283 283 282 282 281 280 279 279 278 276 275 274 275 275 275 275 274 274 273 272 271 271 270 270 269 268 267 265 263 261 259
295 301 303 304 304 303 302 302 301 301 301 301 301 300 299 299 298 297 295 295 294 294 294 292 292 291 289 287 286 286 285 284 284 284 284 284 284 284 284 283 283 282 281 280 280 280 279 277 275 274 273 273 273 273 273 273 273 272 271 270 269 268 268 267 266 266 264 263 261
300 303 304 304 303 303 303 304 303 303 303 303 302 301 301 300 299 298 297 297 296 296 295 294 293 292 289 288 287 287 286 286 286 286 285 285 284 284 284 284 284 283 282 282 281 281 279 278 276 275 273 272 272 272 272 272 272 272 271 270 269 268 267 266 266 265 265 264 262
301 303 303 303 303 303 304 305 305 305 305 304 303 302 301 300 300 299 299 298 297 297 296 295 295 293 290 289 289 289 288 287 287 286 285 284 284 284 285 285 285 284 284 283 282 281 280 278 277 275 274 273 272 271 271 271 270 270 270 269 268 267 266 265 265 265 264 264 263
301 302 302 303 304 305 306 306 306 306 305 304 304 303 302 301 300 300 299 298 298 297 296 295 294 292 290 290 290 289 289 288 288 287 286 286 285 286 286 286 286 286 285 284 283 282 281 279 278 277 275 274 272 271 270 270 269 269 269 268 268 267 266 265 265 264 264 264 264
301 302 303 304 305 307 307 307 307 306 305 304 304 303 302 300 300 300 299 298 298 297 296 294 293 291 291 291 291 290 290 290 289 288 288 287 287 288 288 288 287 286 285 284 283 282 281 280 279 278 277 275 274 272 270 269 269 268 268 267 267 267 266 265 265 264 263 263 263
302 304 305 306 307 308 308 308 307 306 305 304 303 302 301 301 300 300 299 298 298 297 296 295 294 294 293 293 293 292 291 291 290 289 289 289 289 289 289 288 287 286 285 284 284 283 282 282 281 280 279 278 276 273 271 270 269 268 267 266 266 266 265 264 264 263 262 262 261
304 305 306 307 308 308 308 308 307 306 305 304 303 302 302 301 300 300 299 298 298 297 297 296 296 295 295 295 294 293 293 292 290 290 290 290 290 290 289 289 288 286 286 285 285 284 284 283 282 282 281 280 278 276 274 271 269 268 267 266 265 264 264 263 262 261 261 260 260
304 306 307 308 308 308 307 307 306 306 304 303 302 302 302 302 301 300 300 299 298 298 297 296 296 295 295 294 294 293 293 292 291 291 291 291 291 290 289 289 288 287 287 286 286 286 286 285 284 283 283 282 280 279 276 273 270 268 266 265 265 264 263 262 261 261 260 259 258
304 306 306 306 307 307 306 306 305 305 304 303 302 302 302 302 301 300 300 300 299 299 298 297 296 296 295 294 294 293 292 292 292 292 292 292 291 291 289 288 288 288 287 287 287 287 287 287 286 286 285 284 283 281 278 275 271 269 266 265 265 264 263 262 261 260 259 258 257
305 305 304 304 305 305 306 305 305 305 304 303 302 301 301 301 301 301 301 301 301 300 299 298 298 297 297 296 295 294 293 293 293 293 293 292 291 290 290 289 289 289 289 289 289 289 289 289 288 288 287 286 285 282 280 276 273 270 268 266 265 264 263 262 261 260 258 257 256
304 303 301 301 303 305 305 305 305 305 304 303 302 302 301 302 302 302 303 303 303 302 300 300 299 298 298 297 296 295 295 294 294 293 293 292 291 290 290 290 291 291 291 291 291 291 291 290 290 289 289 288 286 283 281 279 275 272 270 268 267 266 264 263 261 260 258 257 255
303 303 302 302 303 305 305 306 305 304 303 303 302 302 303 303 303 303 304 304 303 302 301 300 299 298 298 297 297 296 295 294 293 293 292 292 291 291 291 291 292 292 292 292 292 292 291 291 291 291 290 289 287 285 282 280 277 274 271 270 269 267 265 263 262 261 259 257 255
303 303 303 303 304 304 305 305 304 303 302 302 302 303 303 304 304 304 304 303 302 300 299 299 298 298 298 298 298 297 296 295 294 293 292 292 292 292 292 292 292 292 292 292 292 292 291 291 291 292 292 291 289 286 283 281 278 275 273 272 271 269 267 265 263 261 260 258 256
302 302 303 303 304 304 304 304 303 302 302 302 302 303 303 304 303 303 303 302 301 300 299 298 298 298 298 299 298 297 296 295 295 294 294 293 293 293 293 292 292 292 292 292 292 291 291 291 291 293 294 293 291 288 285 282 279 277 275 273 271 270 268 266 264 262 260 259 257
301 302 303 304 304 304 304 303 303 302 302 302 302 303 303 303 303 303 303 302 301 300 299 298 298 298 299 299 298 297 296 296 296 296 296 295 295 294 293 292 292 292 292 292 291 291 291 291 292 293 294 293 292 290 287 284 281 278 276 275 272 271 269 268 266 263 261 260 259
Height
789 790 790 791 792 792 793 793 794 794 794 794 794 794 794 793 793 793 793 793 792 792 792 791 791 791 791 790 790 790 789 789 788 788 787 786 786 785 784 784 783 783 782 781 781 780 779 779 778 777 776 775 774 773 773 772 772 771 770 770 769 768 767 766 765 764 764 763 763
788 789 789 790 791 791 792 792 793 793 793 793 793 792 792 792 792 792 792 792 791 791 791 790 790 789 789 789 789 788 788 787 786 785 785 784 784 783 782 782 781 780 780 779 779 778 777 777 776 775 774 773 772 771 770 769 769 769 768 767 766 765 764 763 762 761 761 760 760
787 788 789 789 790 790 791 791 792 792 792 791 791 791 791 791 791 791 790 790 790 790 789 789 788 788 788 787 787 786 786 785 784 784 783 782 781 781 780 780 779 778 778 777 776 776 775 774 774 773 772 770 769 769 767 767 766 765 764 764 763 762 761 760 759 758 758 757 756
786 787 788 788 789 789 790 790 790 790 790 790 789 789 789 789 789 789 789 789 789 788 788 787 787 786 786 785 784 784 784 783 782 782 781 780 779 779 779 778 777 776 776 775 774 774 773 772 772 771 769 768 767 766 765 764 764 763 761 760 760 759 758 756 756 755 755 754 753
785 786 786 787 788 788 788 789 789 789 788 788 788 788 789 789 788 788 788 788 787 787 786 786 785 784 784 783 783 782 782 781 781 780 779 779 778 777 777 776 775 774 774 773 772 771 771 770 769 768 767 766 764 763 762 762 761 760 759 758 757 755 754 753 752 752 751 750 750
784 784 785 785 786 786 786 786 786 787 787 787 787 787 787 787 787 787 787 786 786 785 785 784 784 783 782 782 781 781 780 779 779 778 778 777 776 775 774 774 773 772 771 770 769 769 768 768 767 765 764 763 762 760 759 759 758 757 756 755 754 753 751 750 749 749 748 747 747
783 784 784 784 784 784 784 784 785 785 785 786 786 786 786 786 786 786 786 785 784 784 783 783 782 781 781 780 780 779 779 778 777 777 776 775 774 773 772 771 770 769 768 767 767 766 765 765 764 763 761 760 759 757 756 756 755 754 753 752 751 750 749 747 746 746 745 744 744
783 783 783 783 783 783 783 783 784 784 784 785 785 785 785 785 785 784 784 784 783 783 782 781 781 780 779 779 778 778 777 776 775 775 774 773 772 771 769 769 767 766 765 764 764 763 763 762 761 760 759 757 756 754 754 753 753 752 750 749 748 747 746 745 744 743 742 741 741
782 782 781 781 781 781 782 783 783 783 784 784 784 784 784 784 784 783 783 782 782 781 780 780 779 779 778 777 777 776 775 774 773 772 771 770 769 768 767 766 764 763 762 762 761 760 759 759 758 757 755 754 753 752 751 751 750 749 748 747 746 745 744 743 742 741 739 739 738
780 780 779 780 780 781 781 782 782 782 782 783 783 783 783 782 782 782 781 781 780 779 779 778 778 777 776 775 774 774 773 772 771 770 769 767 766 765 764 763 761 760 759 759 758 757 757 756 755 754 753 752 750 749 749 748 747 746 745 745 744 742 741 740 739 738 737 735 735
779 779 779 779 780 780 780 781 781 781 781 782 782 782 781 781 781 780 780 779 779 778 777 777 776 775 774 774 773 772 771 770 769 767 766 764 763 762 761 759 759 758 757 756 755 755 754 753 752 751 749 749 748 747 746 745 744 744 743 742 741 740 739 737 737 736 734 733 732
777 778 778 779 779 779 779 780 780 780 780 781 780 780 780 780 779 779 778 778 777 776 775 775 774 774 772 771 770 769 768 767 766 764 763 762 760 759 758 757 756 755 754 753 753 752 751 750 749 748 747 746 745 744 743 742 741 740 739 739 738 737 736 734 734 733 732 730 729
776 777 778 778 778 778 779 779 779 779 779 779 779 779 779 778 778 777 777 776 775 774 774 773 772 771 770 769 768 767 766 764 763 762 760 759 758 756 755 754 753 752 751 750 749 749 748 747 746 745 744 743 742 741 740 739 739 737 736 735 734 733 732 731 730 730 729 728 727
776 776 777 777 777 778 778 778 778 778 778 778 778 777 777 777 776 776 775 774 774 773 772 771 770 769 768 767 765 764 763 762 760 759 758 756 754 753 752 751 750 749 748 747 746 746 745 744 743 742 741 740 739 738 737 736 735 734 733 732 731 729 728 727 727 726 726 725 724
775 775 776 776 777 777 777 777 777 777 777 776 776 776 775 775 774 774 773 772 772 771 770 769 768 767 765 764 763 762 760 759 758 756 754 753 752 750 749 748 747 746 745 744 743 743 742 741 740 739 738 737 736 735 734 733 732 731 730 729 727 726 725 724 724 723 723 722 721
774 775 775 775 776 776 776 776 776 775 775 775 775 774 774 773 773 772 771 770 769 769 768 767 765 764 763 762 760 759 758 756 755 753 752 750 749 748 746 745 744 743 742 741 740 739 739 738 737 736 735 734 733 732 731 730 729 728 727 725 724 723 722 721 721 720 719 719 718
774 774 774 774 774 774 774 774 774 774 774 774 773 773 772 772 771 770 769 768 767 766 765 764 763 762 760 759 758 757 755 754 752 751 749 747 746 745 744 742 741 740 739 739 738 736 735 735 734 733 732 731 730 729 728 727 726 724 724 722 721 720 719 719 718 718 717 716 715
773 773 773 773 773 773 773 773 773 773 772 772 771 771 770 770 769 768 767 766 765 764 763 762 760 759 758 757 755 754 753 751 749 748 746 745 743 742 741 740 739 738 737 736 735 734 733 732 731 730 729 728 727 726 724 724 723 722 721 720 719 718 717 716 716 715 714 714 713
772 772 772 772 772 772 772 771 771 771 770 770 769 769 768 768 767 766 765 764 763 762 761 759 758 757 755 754 753 751 750 749 747 745 744 742 741 739 738 737 736 735 734 733 732 731 729 729 728 727 726 725 724 723 722 721 720 719 718 717 716 715 715 714 713 713 712 711 710
770 770 770 770 770 770 770 770 769 769 769 768 768 767 766 765 765 764 763 762 761 759 759 757 755 754 753 751 750 749 747 746 744 742 741 740 739 737 736 735 734 732 731 730 729 728 727 726 725 724 723 722 721 720 719 718 717 716 715 714 714 713 712 711 711 710 709 709 708
769 769 769 769 769 769 768 768 768 767 767 766 765 765 764 763 763 762 761 759 758 757 756 754 753 751 750 749 747 745 744 743 741 740 738 737 736 734 733 732 731 730 729 727 726 725 724 723 722 721 720 719 718 717 716 715 714 713 713 712 711 710 709 709 708 708 707 706 705
768 768 768 767 767 767 767 766 766 765 765 764 764 763 762 761 760 759 758 757 756 755 754 752 751 749 748 746 744 743 741 740 739 737 736 734 733 732 731 730 729 727 726 724 723 722 721 720 719 719 718 717 716 714 714 713 712 711 709 709 708 707 706 706 705 705 704 703 703
766 766 766 766 766 765 765 764 764 764 763 762 761 761 760 759 758 757 756 755 754 753 751 750 748 746 745 743 742 740 739 737 736 734 733 732 731 729 728 727 726 724 723 722 720 719 719 718 717 716 715 714 713 712 711 710 709 708 707 706 705 704 703 703 702 701 701 700 700
765 764 764 764 764 764 763 763 762 762 761 760 759 759 758 757 756 755 754 753 752 750 749 747 745 744 742 740 739 737 736 734 733 731 730 729 728 727 726 724 723 722 720 719 718 717 716 716 715 714 713 712 711 710 709 708 707 706 704 703 702 701 700 699 699 698 698 697 696
763 763 763 763 762 762 761 761 760 760 759 758 758 757 756 755 754 753 752 750 749 748 746 744 743 741 739 738 736 734 733 732 730 729 727 726 725 724 723 722 720 719 717 716 715 714 714 714 713 712 711 710 709 708 706 705 704 703 702 701 700 699 698 696 696 695 694 694 693
762 761 761 761 761 760 760 759 759 758 757 757 756 755 754 753 752 751 749 748 746 745 744 742 740 738 737 735 733 732 730 729 728 726 725 724 722 721 720 719 718 716 714 713 712 712 711 711 711 710 709 708 707 705 704 703 702 701 700 699 698 696 695 694 693 692 691 690 689
760 760 760 759 759 759 758 758 757 756 755 755 754 753 752 751 750 748 747 745 744 742 741 739 737 735 734 732 730 729 728 726 725 724 723 721 720 719 717 716 714 713 712 711 710 709 709 709 708 708 707 706 704 703 701 700 699 698 697 696 695 694 692 691 689 689 688 687 686
759 758 758 758 758 757 757 756 755 755 754 753 752 751 750 749 748 746 744 743 741 740 738 736 735 733 731 729 728 726 725 724 723 721 720 719 717 716 714 713 712 710 709 708 708 707 706 706 705 704 704 703 702 700 699 698 696 695 694 693 692 690 689 688 687 685 685 684 683
757 757 757 756 756 755 755 754 754 753 752 751 750 749 748 747 745 744 742 740 739 737 736 734 732 731 729 727 726 724 723 721 720 719 717 716 714 713 712 710 709 708 707 706 705 704 704 703 702 701 701 700 699 698 696 695 694 692 691 690 688 687 686 684 684 683 682 681 680
755 755 755 755 754 754 754 753 752 751 750 749 748 747 746 744 743 741 740 738 737 735 733 732 730 728 727 725 724 722 720 719 718 716 715 713 712 710 709 708 707 705 704 703 702 702 700 700 699 698 697 697 696 695 693 692 691 689 688 687 685 684 683 681 680 680 679 678 677
754 754 754 753 753 752 752 751 750 750 749 748 746 745 744 742 741 739 738 736 734 732 731 729 728 726 724 723 721 719 718 716 715 714 712 711 709 708 706 705 704 703 701 700 699 699 698 697 696 695 694 693 692 691 690 689 687 686 685 683 682 680 679 679 677 677 676 675 675
753 753 752 752 751 751 750 750 749 748 747 746 744 743 742 740 739 737 735 734 732 730 728 727 725 723 722 720 719 717 715 714 713 711 710 709 707 705 704 703 701 700 699 698 696 695 694 694 692 691 690 690 689 688 687 685 684 683 681 679 678 677 676 675 674 673 673 672 672
751 751 751 750 750 749 749 748 747 746 745 744 743 741 740 738 736 735 733 731 730 728 726 724 723 721 719 718 716 714 713 712 710 709 708 706 705 704 702 700 699 697 696 695 694 692 691 690 689 688 687 686 685 684 683 682 680 679 677 675 674 673 672 671 670 669 669 669 668
750 749 749 749 749 748 747 746 745 744 743 742 740 739 738 736 734 733 731 729 728 726 724 722 721 719 717 716 714 712 711 709 708 707 705 704 703 701 700 698 696 694 693 692 691 689 688 687 686 685 684 683 682 681 679 678 676 675 673 672 670 669 668 667 667 666 665 664 664
749 748 748 747 747 746 746 744 744 742 741 740 738 737 735 734 732 730 729 727 725 724 722 720 719 717 715 714 712 710 709 707 706 704 703 702 701 699 697 695 694 692 690 689 688 687 685 684 683 682 680 679 678 677 675 674 672 671 669 668 666 665 664 663 663 662 661 661 660
747 747 746 746 745 745 744 743 742 740 739 738 736 735 733 732 730 729 727 725 724 722 720 718 716 715 713 711 710 709 707 705 704 702 701 700 699 697 695 693 691 689 688 686 685 684 683 681 680 679 677 676 675 674 672 670 669 667 665 664 663 661 660 659 659 658 657 657 656
746 745 745 744 744 743 742 741 740 739 737 736 734 733 731 729 728 726 725 723 722 719 718 716 714 713 711 709 708 706 705 704 702 700 699 697 696 694 693 690 688 686 684 684 682 681 679 678 677 675 674 673 672 670 669 667 665 664 662 660 659 657 656 655 654 654 653 652 652
744 744 744 743 742 741 740 739 738 737 735 734 732 731 729 728 726 724 723 722 720 718 716 714 712 711 709 708 706 704 703 702 700 699 697 695 694 692 690 688 686 684 682 681 679 678 677 675 674 672 671 670 669 667 665 664 662 660 659 657 655 654 653 652 651 649 649 648 647
743 743 743 742 741 740 739 738 737 735 734 732 731 729 728 726 724 723 721 720 719 716 714 712 710 709 707 706 704 703 701 699 698 697 695 693 692 690 689 686 684 681 680 678 677 675 674 672 671 669 668 667 666 664 662 660 659 657 655 654 652 650 649 648 647 646 645 644 643
742 742 741 740 739 739 737 736 735 734 732 731 729 727 726 724 723 721 719 718 717 715 713 711 709 707 706 704 703 701 699 697 695 694 693 691 689 688 686 684 682 679 677 676 674 673 671 669 668 667 665 664 663 661 659 658 655 654 652 650 649 647 645 644 644 643 641 640 639
741 740 740 739 738 737 736 734 733 732 731 729 728 726 724 723 721 719 718 716 715 713 711 709 707 705 704 703 701 699 697 695 693 692 690 689 687 686 684 682 680 677 675 673 672 670 669 667 665 664 663 662 660 658 657 655 653 650 648 647 645 644 642 641 640 639 638 637 636